Avalon, CA

3:05 AM PDT on April 30, 2017 (GMT -0700)
Catalina

Weather History for KAVX - February, 2013

Change the Weather History Date:

Wednesday, February 20, 2013

  Actual Average Record
Temperature  
Mean Temperature 45 °F -  
Max Temperature 51 °F 54 °F 72 °F (2014)
Min Temperature 39 °F 46 °F 37 °F (2011)
Degree Days  
Heating Degree Days 20    
Moisture  
Dew Point 35 °F    
Average Humidity 71    
Maximum Humidity 93    
Minimum Humidity 48    
Precipitation  
Precipitation 0.00 in - - ()
Sea Level Pressure  
Sea Level Pressure 29.86 in    
Wind  
Wind Speed 19 mph (WNW)    
Max Wind Speed 26 mph    
Max Gust Speed 43 mph    
Visibility 10 miles    
Events      
Averages and records for this station are not official NWS values.
T = Trace of Precipitation, MM = Missing Value Source: NWS Daily Summary

Daily Weather History Graph

Daily Weather History Graph

Search for Another Location

Airport or City:

Trip Planner

Search our weather history database for the weather conditions in past years. The results will help you decide how hot, cold, wet, or windy it might be!

Date:

Astronomy

Feb. 20, 2013 Rise Set
Actual Time 6:31 AM PST 5:43 PM PST
Civil Twilight 6:06 AM PST 6:08 PM PST
Nautical Twilight 5:37 AM PST 6:37 PM PST
Astronomical Twilight 5:09 AM PST 7:06 PM PST
Moon 1:17 PM PST (2/20) 2:47 AM PST (2/20)
Length of Visible Light 12h 01m
Length of Day
11h 11m
Waxing Gibbous, 77% of the Moon is Illuminated
Feb 20
Waxing Gibbous
Feb 25
Full
Mar 4
Last Quarter
Mar 11
New
Mar 19
First Quarter

Hourly Weather History & Observations

Time (PST) Temp. Windchill Dew Point Humidity Pressure Visibility Wind Dir Wind Speed Gust Speed Precip Events Conditions
12:51 AM 42.1 °F 33.3 °F 34.0 °F 73% 29.75 in 10.0 mi West 19.6 mph 36.8 mph N/A   Mostly Cloudy
1:51 AM 41.0 °F 31.1 °F 32.0 °F 70% 29.75 in 10.0 mi West 23.0 mph 35.7 mph N/A   Partly Cloudy
2:51 AM 41.0 °F 31.1 °F 32.0 °F 70% 29.73 in 10.0 mi West 23.0 mph 40.3 mph N/A   Clear
3:51 AM 41.0 °F 30.5 °F 32.0 °F 70% 29.73 in 10.0 mi WNW 26.5 mph 42.6 mph N/A   Partly Cloudy
4:51 AM 41.0 °F 30.7 °F 32.0 °F 70% 29.73 in 10.0 mi WNW 25.3 mph 34.5 mph N/A   Scattered Clouds
5:07 AM 41.0 °F 31.1 °F 33.8 °F 76% 29.71 in 10.0 mi West 23.0 mph 32.2 mph N/A   Mostly Cloudy
5:17 AM 41.0 °F 30.9 °F 30.2 °F 65% 29.72 in 10.0 mi WNW 24.2 mph 35.7 mph N/A   Scattered Clouds
5:51 AM 41.0 °F 31.1 °F 30.9 °F 67% 29.75 in 10.0 mi WNW 23.0 mph 35.7 mph N/A   Mostly Cloudy
6:25 AM 39.2 °F 28.3 °F 28.4 °F 65% 29.73 in 10.0 mi WNW 25.3 mph 33.4 mph N/A   Mostly Cloudy
6:51 AM 39.9 °F 32.1 °F 28.9 °F 65% 29.77 in 10.0 mi WNW 13.8 mph 24.2 mph N/A   Scattered Clouds
7:51 AM 41.0 °F 32.8 °F 28.0 °F 60% 29.82 in 10.0 mi NW 16.1 mph 23.0 mph N/A   Partly Cloudy
8:51 AM 43.0 °F 34.5 °F 30.0 °F 60% 29.83 in 10.0 mi WNW 19.6 mph 24.2 mph N/A   Clear
9:51 AM 45.0 °F 37.4 °F 30.9 °F 58% 29.85 in 10.0 mi WNW 18.4 mph 25.3 mph N/A   Clear
10:51 AM 46.9 °F - 34.0 °F 61% 29.88 in 10.0 mi WNW 13.8 mph 23.0 mph N/A   Clear
11:51 AM 48.0 °F - 33.1 °F 56% 29.88 in 10.0 mi WNW 13.8 mph - N/A   Clear
12:51 PM 48.0 °F - 34.0 °F 58% 29.87 in 10.0 mi NW 15.0 mph - N/A   Clear
1:51 PM 51.1 °F - 32.0 °F 48% 29.87 in 10.0 mi WNW 11.5 mph - N/A   Clear
2:51 PM 48.9 °F - 37.0 °F 64% 29.89 in 10.0 mi West 17.3 mph - N/A   Clear
3:51 PM 50.0 °F - 37.0 °F 61% 29.90 in 10.0 mi West 19.6 mph 24.2 mph N/A   Clear
4:51 PM 48.0 °F - 39.0 °F 71% 29.92 in 10.0 mi West 16.1 mph - N/A   Clear
5:51 PM 46.0 °F 40.6 °F 39.9 °F 79% 29.94 in 10.0 mi West 11.5 mph - N/A   Clear
7:51 PM 46.0 °F 40.2 °F 39.9 °F 79% 29.97 in 9.0 mi WNW 12.7 mph - N/A   Clear
8:51 PM 46.0 °F 39.9 °F 39.9 °F 79% 29.99 in 10.0 mi NW 13.8 mph - N/A   Clear
9:29 PM 46.4 °F 41.1 °F 42.8 °F 87% 29.98 in 9.0 mi NW 11.5 mph 23.0 mph N/A   Partly Cloudy
9:51 PM 46.0 °F 40.2 °F 42.1 °F 86% 30.00 in 8.0 mi NW 12.7 mph - N/A   Mostly Cloudy
10:13 PM 46.4 °F 40.4 °F 42.8 °F 87% 29.98 in 8.0 mi NW 13.8 mph 23.0 mph N/A   Mostly Cloudy
10:30 PM 44.6 °F 38.1 °F 42.8 °F 93% 29.98 in 7.0 mi NW 13.8 mph - N/A   Mostly Cloudy
10:51 PM 45.0 °F 38.9 °F 43.0 °F 93% 30.00 in 7.0 mi NW 12.7 mph - N/A   Mostly Cloudy
11:51 PM 45.0 °F 41.2 °F 43.0 °F 93% 30.01 in 8.0 mi WNW 6.9 mph - N/A   Overcast